Home > Weather > Asuncion > Past weeks

Flag for Paraguay Weather for the Past 2 Weeks in Asuncion, Paraguay

Now
84 °F

Clear.


Feels Like: 94 °F
Forecast: 81 / 97 °F
Wind: 3 mph from Northeast

Location: Asuncion / Aeropuerto

Current Time: Feb 8, 2016 at 11:44:11 PM

Latest Report: Feb 8, 2016 at 11:00 PM


Visibility: 10 mi

Pressure: 29.83 "Hg

Humidity: 79%

Dew point: 77 °F

Location of AsuncionLocation

Historic Weather in Asuncion — Graph

°F

Asuncion Temperature Yesterday

Maximum temperature yesterday: 93 °F (at 3:00 PM)
Minimum temperature yesterday: 75 °F (at 2:00 AM)
Average temperature yesterday: 84 °F

High & Low Weather Summary for the Past Weeks

 TemperatureHumidityPressure
High100 °F (Jan 25, 1:00 PM)100% (Jan 26, 9:30 AM)30.01 "Hg (Jan 26, 9:30 AM)
Low70 °F (Feb 3, 11:00 AM)45% (Jan 25, 1:00 PM)29.59 "Hg (Jan 24, 10:00 PM)
Average81 °F79%29.84 "Hg
* Reported Jan 24 10:00 PM — Feb 8 10:00 PM, Asuncion, Weather by CustomWeather, © 2016

Note: Actual official high and low records may vary slightly from our data, if they occured in-between our weather recording intervals... More about our weather records

Advertising

Asuncion Weather History for the Previous 24 Hours

 ConditionsComfort  
Time TempWeatherWind HumidityBarometerVisibility
10:00 PM
Mon, Feb 8
84 °FClear.3 mph74%29.80 "Hg10 mi
9:00 PM86 °FClear.6 mph66%29.74 "Hg10 mi
8:00 PM88 °FClear.6 mph66%29.71 "Hg10 mi
7:00 PM93 °FPartly sunny.8 mph56%29.71 "HgN/A
6:00 PM95 °FScattered clouds.8 mph53%29.74 "HgN/A
5:00 PM95 °FScattered clouds.10 mph53%29.74 "HgN/A
3:00 PM95 °FPartly sunny.13 mph56%29.77 "HgN/A
2:00 PM93 °FPartly sunny.12 mph59%29.77 "HgN/A
1:00 PM93 °FPartly sunny.12 mph63%29.80 "HgN/A
12:00 PM93 °FBroken clouds.6 mph63%29.80 "HgN/A
11:00 AM91 °FPartly sunny.6 mph63%29.83 "HgN/A
10:30 AM91 °FPartly sunny.6 mph63%29.83 "HgN/A
10:00 AM88 °FPassing clouds.6 mph70%29.83 "HgN/A
9:30 AM88 °FPassing clouds.6 mph70%29.83 "HgN/A
9:00 AM88 °FPassing clouds.7 mph70%29.86 "HgN/A
8:30 AM86 °FSunny.10 mph75%29.83 "Hg10 mi
8:00 AM84 °FPassing clouds.7 mph79%29.83 "HgN/A
7:00 AM81 °FPassing clouds.6 mph89%29.83 "HgN/A
6:00 AM81 °FClear.6 mph89%29.80 "Hg10 mi
5:00 AM81 °FClear.6 mph89%29.80 "Hg10 mi
4:00 AM81 °FClear.7 mph89%29.77 "Hg10 mi
3:00 AM79 °FClear.2 mph94%29.80 "Hg10 mi
2:00 AM81 °FClear.No wind89%29.80 "Hg10 mi
1:00 AM81 °FClear.5 mph89%29.80 "Hg10 mi
12:00 AM81 °FClear.5 mph89%29.80 "Hg10 mi
11:00 PM
Sun, Feb 7
82 °FClear.2 mph84%29.77 "Hg10 mi
Weather by CustomWeather, © 2016

See weather overviewHow to use our weather pages